sat.trackr.live / text

‹ back to catalog

STARLINK-3512

NORAD 51743 · 2022-016AF

PAYLOAD ACTIVE UNKNOWN

§ Identity

Operator
Country
US
Launch date
2022-02-21
Launch site
AFETR
Launch vehicle
Mass (kg)
RCS (m²)

Purposes: comms

External: N2YO · Heavens-Above · Gunter

§ Orbital elements

Epoch: 2026-09-19T08:59:33.652320Z

Period
93.85 min
Inclination
53.1595°
Eccentricity
0.0001211
Mean motion
15.34392716 rev/d
Perigee alt
461.9 km
Apogee alt
463.6 km
Semi-major
6,840.9 km
B*
6.8786e-5
RAAN
145.3385°
Arg perigee
98.7456°
Mean anomaly
261.3684°
Rev number
25,313

§ Raw data

STARLINK-35121 51743U 22016AF  26262.37469505  .00001948  00000+0  68786-4 0  99982 51743  53.1595 145.3385 0001211  98.7456 261.3684 15.34392716253138

JSON: /api/v1/satellites/51743 · /tle

For live sub-satellite position, see the globe view (requires WebGL).

§ Visibility from observer

Set your observer location to see the next 7 days of passes ≥ 10°. The values pass through the URL so the page stays shareable.

No JS? Fill the form by hand. The geolocation button needs JavaScript.